You are listening to:
SABE Gnd/Twr/App - Buenos Aires, Argentina

SABE 041500Z 34006KT CAVOK 13/07 Q1012 NOSIG

If stream doesn't start automatically press the play button
If stream stops then reload player then press play